[Date Prev][Date Next][Thread Prev][Thread Next] - [Date Index][Thread Index][Author Index]

2 Line ISS Keps 11-14



ISS 
1 25544U 98067A   04319.34294550  .00024822  00000-0  19805-3 0  1366
2 25544  51.6361 279.5030 0008453 355.5905 140.1012 15.70949658341902
----
Via the sarex mailing list at AMSAT.ORG courtesy of AMSAT-NA.
To unsubscribe, send "unsubscribe sarex" to Majordomo@amsat.org



AMSAT Top AMSAT Home